Home > Weather > Canton > Past weeks

Flag for U.S.A. Weather for the Past 2 Weeks in Canton, Ohio, U.S.A.

Now
32 °F

Overcast.


Feels Like: 23 °F
Forecast: 27 / 40 °F
Wind: 12 mph from Southwest

Location: Akron-Canton Regional Airport

Current Time: Feb 6, 2016 at 3:23:49 AM

Latest Report: Feb 6, 2016 at 2:51 AM


Visibility: 10 mi

Pressure: 30.30 "Hg

Humidity: 56%

Dew point: 18 °F

Location of CantonLocation

Historic Weather in Canton — Graph

°F

Canton Temperature Yesterday

Maximum temperature yesterday: 36 °F (at 2:51 PM)
Minimum temperature yesterday: 20 °F (at 5:51 AM)
Average temperature yesterday: 29 °F

High & Low Weather Summary for the Past Weeks

 TemperatureHumidityPressure
High62 °F (Feb 3, 1:51 PM)89% (Feb 2, 11:51 PM)30.41 "Hg (Feb 2, 11:51 PM)
Low11 °F (Jan 24, 3:51 AM)33% (Jan 25, 2:51 PM)29.62 "Hg (Feb 3, 1:51 PM)
Average34 °F65%30.00 "Hg
* Reported Jan 22 1:51 AM — Feb 6 1:51 AM, Canton, Weather by CustomWeather, © 2016

Note: Actual official high and low records may vary slightly from our data, if they occured in-between our weather recording intervals... More about our weather records

Advertising

Canton Weather History for the Previous 24 Hours

 ConditionsComfort  
Time TempWeatherWind HumidityBarometerVisibility
1:51 AM
Sat, Feb 6
31 °FPassing clouds.12 mph59%30.29 "Hg10 mi
12:51 AM32 °FOvercast.10 mph59%30.31 "Hg10 mi
11:51 PM
Fri, Feb 5
32 °FOvercast.9 mph59%30.32 "Hg10 mi
10:51 PM31 °FOvercast.6 mph64%30.34 "Hg10 mi
9:51 PM31 °FPassing clouds.7 mph61%30.36 "Hg10 mi
8:51 PM30 °FPassing clouds.8 mph64%30.37 "Hg10 mi
7:51 PM27 °FPassing clouds.8 mph66%30.39 "Hg10 mi
6:51 PM30 °FPassing clouds.5 mph61%30.40 "Hg10 mi
5:51 PM31 °FPassing clouds.5 mph59%30.39 "Hg10 mi
4:51 PM34 °FPassing clouds.9 mph52%30.37 "Hg10 mi
3:51 PM35 °FScattered clouds.10 mph48%30.37 "Hg10 mi
2:51 PM36 °FScattered clouds.7 mph48%30.36 "Hg10 mi
1:51 PM34 °FScattered clouds.8 mph50%30.37 "Hg10 mi
12:51 PM32 °FScattered clouds.7 mph56%30.38 "Hg10 mi
11:51 AM33 °FPassing clouds.8 mph54%30.40 "Hg10 mi
10:51 AM30 °FPassing clouds.8 mph59%30.41 "Hg10 mi
9:51 AM27 °FPassing clouds.6 mph66%30.41 "Hg10 mi
8:51 AM24 °FPassing clouds.9 mph71%30.40 "Hg8 mi
7:51 AM22 °FPartly sunny.5 mph75%30.38 "Hg8 mi
6:51 AM22 °FPassing clouds.7 mph75%30.36 "Hg9 mi
5:51 AM20 °FClear.6 mph78%30.35 "Hg10 mi
4:51 AM22 °FPassing clouds.8 mph72%30.33 "Hg10 mi
3:51 AM25 °FOvercast.12 mph69%30.31 "Hg10 mi
Weather by CustomWeather, © 2016

See weather overviewHow to use our weather pages